Simultaneous Nadir Overpasses (SNOs) Predictions

Prediction of SNOs between AQUA and NOAA-19 Satellite Orbit:

Table of predicted SNOs for the next 14.0 days since TLE Epoch: 7/15/2023
Index Date (AQUA) Time (AQUA) Lat,Lon (AQUA) SZA (AQUA ) Date (NOAA-19) Time (NOAA-19) Lat,Lon (NOAA-19) SZA (NOAA-19 ) Distance(km) Time Diff (sec)
1 07/16/2023 06:34:34 -76.39,-107.66 124.82 07/16/2023 06:33:51 -76.38,-107.56 124.83 3.18 43
2 07/16/2023 07:24:00 76.43, 59.84 55.23 07/16/2023 07:24:53 76.44, 59.93 55.23 2.46 53
3 07/18/2023 11:16:33 -76.36,-178.02 124.49 07/18/2023 11:15:19 -76.37,-177.90 124.47 3.50 74
4 07/18/2023 12:05:59 76.40, -10.53 55.57 07/18/2023 12:06:21 76.42, -10.47 55.58 2.11 22
5 07/20/2023 16:47:57 76.35, -80.84 55.92 07/20/2023 16:47:49 76.38, -80.90 55.95 3.28 8
6 07/20/2023 17:37:29 -76.74, 85.47 123.63 07/20/2023 17:38:37 -76.74, 87.80 123.76 59.61 68
7 07/22/2023 21:29:55 76.34,-151.25 56.33 07/22/2023 21:29:17 76.34,-151.37 56.34 3.03 38
8 07/22/2023 22:19:20 -76.39, 16.22 123.61 07/22/2023 22:20:12 -76.41, 16.19 123.60 2.77 52
9 07/25/2023 02:11:53 76.35, 138.24 56.79 07/25/2023 02:10:44 76.33, 138.31 56.79 2.67 69
10 07/25/2023 03:01:18 -76.40, -54.27 123.15 07/25/2023 03:01:40 -76.38, -54.22 123.17 1.98 22
11 07/27/2023 07:43:14 -76.34,-124.54 122.73 07/27/2023 07:43:08 -76.35,-124.66 122.72 3.28 6



Historial Predications of SNOs between AQUA and NOAA-19
